SCP
0 0 0 0 0 0 0 0 0 0 0 0 0 0 0 0 0 0 0 0 0 0 0 0 0 0 0 0 0 0 0 0 0 0 0 0 0 0 0 0 -0 -0 -0 -0 0 0 0 0 0 0 0 0 0 0
0 0 0 0 0 0 0 0 0 0 0 0 0 0 0 0 0 0 0 0 0 0 0 0 0 0 0 0 0 0 0 0 0 0 0 0 0 0 -0 -0 0 0 0 0 0 0 0 0 0 0 0 0 0 0
0 0 0 0 0 0 0 0 0 0 0 0 0 0 0 0 0 0 0 0 0 0 0 0 0 0 0 0 0 0 0 0 0 0 0 0 0 -0 -0 -0 0 0 0 0 0 0 0 -0 0 0 0 0 0 0
0 0 0 0 0 0 0 0 0 0 0 0 0 0 0 0 0 0 0 0 0 0 0 0 0 0 0 0 0 0 0 0 0 0 0 0 0 -0 -0 -0 -0 0 0 0 0 0 0 0 0 -0 -0 -0 -0 -0
0 0 -0 0 0 0 0 0 0 0 0 0 0 0 0 0 0 0 0 0 0 0 0 0 0 0 0 0 0 0 0 0 0 0 0 0 0 0 0 0 -0 0 0 0 -0 -0 0 0 0 0 0 0 -0 -0
0 0 0 0 0 0 0 0 0 0 0 0 0 0 0 0 0 0 0 0 0 0 0 0 0 0 0 0 0 0 0 0 0 0 0 0 0 0 0 -0 -0 0 0 -0 -0 -0 -0 0 0 0 -0 0 0 0
-0 0 -0 0 0 0 0 0 0 0 0 0 0 0 0 0 0 0 0 0 0 0 0 0 0 0 0 0 0 0 0 0 0 0 0 0 0 0 0 -0 0 0 -0 -0 0 0 0 0 0 0 0 0 0 0
0 -0 -0 -0 -0 0 0 0 0 0 0 0 0 0 0 0 0 0 0 0 0 0 0 0 0 0 0 0 0 0 0 0 0 0 0 0 0 0 0 0 -0 -0 -0 -0 -0 0 0 -0 0 0 0 0 0 0
0 0 -0 -0 -0 0 0 0 0 0 0 0 0 0 0 0 0 0 0 0 0 0 0 0 0 0 0 0 0 0 0 0 0 0 0 0 0 0 0 0 0 0 -0 -0 -0 -0 -0 0 0 0 0 0 0 0
0 0 0 0 0 0 0 0 0 0 0 0 0 0 0 0 0 0 0 0 0 0 0 0 0 0 0 0 -0 0 -0 0 -0 0 0 0 0 0 0 0 0 0 0 0 -0 -0 -0 -0 -0 0 0 0 0 0
0 0 0 0 0 0 0 0 0 0 0 0 0 0 0 0 0 0 0 0 0 0 0 0 0 0 0 0 0 0 0 0 0 0 0 0 0 0 0 0 0 0 0 0 0 0 0 0 0 0 0 0 0 0
0 0 0 0 0 0 0 0 0 0 0 0 0 0 0 0 0 0 0 0 0 0 0 0 0 0 0 0 0 0 0 0 0 0 0 0 0 0 0 0 0 0 0 0 0 0 0 0 0 0 -0 0 0 0
0 0 0 0 0 0 0 0 0 0 0 0 0 0 0 0 0 0 0 0 0 0 0 0 0 0 0 0 0 0 0 0 0 0 0 0 0 0 0 0 0 0 0 0 0 0 0 0 0 0 0 0 0 0
0 0 0 0 0 0 0 0 0 0 0 0 0 0 0 0 0 0 0 0 0 0 0 -0 0 0 0 0 0 0 0 0 0 0 0 0 0 0 0 0 0 0 0 0 0 0 0 0 0 0 0 0 0 0
0 0 0 0 0 0 0 0 0 0 0 0 0 0 0 0 0 0 0 0 0 0 0 0 0 0 0 0 0 0 0 0 0 0 0 -0 0 0 0 0 0 0 0 0 0 0 0 0 0 0 0 0 0 0
-0 -0 0 0 0 0 0 0 0 0 0 0 0 0 0 0 0 0 0 0 -0 -0 0 0 0 0 0 0 0 0 0 0 0 -0 0 0 0 0 0 0 0 0 0 0 0 0 0 0 0 0 0 0 0 0
-0 -0 0 0 0 0 0 0 0 0 0 0 0 0 0 0 0 -0 -0 0 0 0 0 0 0 0 0 0 0 0 0 0 0 0 0 0 0 0 0 0 0 0 0 0 0 0 0 0 0 0 0 0 0 0
-0 0 0 -0 0 0 0 0 0 0 0 0 0 0 0 0 0 0 0 0 0 0 0 0 0 0 0 0 0 0 0 0 0 0 0 0 0 0 0 0 0 0 0 0 0 0 0 0 0 0 0 0 0 0
0 -0 0 0 0 0 0 0 0 0 0 0 0 0 0 0 0 0 0 0 0 0 0 0 0 0 0 0 0 0 0 0 0 0 0 0 0 0 0 0 0 0 0 0 0 0 0 0 0 0 0 0 0 0
-0 -0 0 0 0 0 0 0 0 0 0 0 0 0 0 0 0 0 0 0 0 0 -0 -0 0 0 0 0 0 0 0 0 0 0 0 0 0 0 0 0 0 0 0 0 0 0 0 0 0 0 0 0 0 0
0 0 0 0 0 0 0 0 0 0 0 0 0 0 0 0 0 0 0 0 0 0 0 0 0 0 0 0 0 0 0 0 0 0 0 0 0 0 0 0 0 0 0 0 0 0 0 0 0 0 0 0 0 0
0 0 0 0 0 0 0 0 0 0 0 0 0 0 0 0 0 0 0 0 0 0 0 0 0 0 0 0 0 0 0 0 0 0 0 0 0 0 0 0 0 0 0 0 0 0 0 0 0 0 0 0 0 0
0 0 0 0 0 0 0 0 0 0 0 0 0 0 0 0 0 0 0 0 0 0 0 0 0 -0 -0 -0 -0 -0 -0 0 0 0 0 0 -0 0 0 0 0 0 0 0 0 0 0 0 0 0 0 0 0 0
0 0 0 0 0 0 0 0 0 0 0 0 0 0 0 0 0 0 0 0 0 -0 -0 -0 -0 -0 -0 -0 -0 -0 -0 -0 -0 -0 0 0 0 0 0 0 0 0 0 0 0 0 0 0 0 0 0 0 0 0
0 0 0 0 0 0 0 0 0 0 0 0 0 0 0 0 0 0 0 0 0 -0 -0 -0 -0 -0 -0 -0 -0 -0 -0 -0 -0 -0 -0 -0 -0 -0 0 0 0 0 0 0 0 0 0 0 0 0 0 0 0 0
0 0 0 0 0 0 0 0 0 0 0 0 -0 -0 0 0 0 -0 -0 -0 -0 -0 -0 -0 -0 -0 -0 -0 0 0 -0 -0 -0 -0 -0 -0 -0 -0 -0 0 0 0 0 0 0 0 0 0 0 0 0 0 0 0
0 0 0 0 0 0 0 0 0 0 0 0 -0 -0 -0 -0 -0 0 -0 -0 -0 -0 -0 -0 0 0 -0 0 0 0 0 0 -0 0 0 -0 -0 -0 -0 -0 -0 0 0 0 0 0 0 0 0 0 0 0 0 0
0 0 0 0 0 0 0 0 0 0 0 0 0 0 -0 -0 -0 0 0 0 0 0 -0 0 0 0 0 0 0 0 0 0 0 0 0 0 0 0 -0 0 0 0 0 0 0 0 0 0 0 0 0 0 0 0
0 0 0 0 0 0 0 0 0 0 0 0 0 0 0 0 0 0 0 0 0 0 0 0 0 0 0 0 0 -0 -0 -0 0 0 0 0 0 0 0 0 0 0 0 0 0 0 0 0 0 0 0 0 0 0
0 0 0 0 0 0 0 0 0 0 0 0 0 0 0 0 0 0 0 0 0 0 0 0 0 0 0 0 0 0 0 0 0 -0 0 0 0 0 0 0 0 0 0 0 0 0 0 0 0 0 0 0 0 0
0 0 0 0 0 0 0 0 0 0 0 0 0 0 0 0 0 0 0 0 0 0 0 0 0 0 0 0 0 0 0 0 0 0 0 0 0 0 0 0 0 0 0 0 0 0 0 0 0 0 0 0 0 0
0 0 0 0 0 0 0 0 0 0 0 0 0 0 0 0 0 0 0 0 0 0 0 0 0 0 0 0 0 0 0 0 0 0 0 0 0 0 0 0 0 0 0 0 0 0 0 0 0 0 0 0 0 0
0 0 0 0 0 0 0 0 0 0 0 0 0 0 0 0 0 0 0 0 0 0 0 0 0 0 0 0 0 0 0 0 0 0 0 0 0 0 0 0 0 0 0 0 0 0 0 0 0 0 0 0 0 0
Wind_Speed_500mb
27 30 29 45 47 52 55 54 49 56 70 66 69 68 75 59 51 40 40 31 25 16 25 17 23 29 23 25 9 15 12 3 5 5 7 7 6 10 6 8 13 16 16 9 8 8 23 12 34 42 50 15 8 70
25 22 39 46 46 47 50 50 47 50 67 57 89 74 63 59 57 46 30 29 34 21 18 25 23 25 27 34 31 35 15 13 19 6 3 4 5 6 8 7 2 7 14 13 17 15 7 49 16 73 8 23 38 26
27 26 39 46 51 52 50 49 49 49 48 55 47 71 69 69 59 46 29 25 21 19 16 16 18 23 25 28 35 17 11 13 10 11 8 6 6 7 7 9 7 7 13 8 7 11 27 31 70 38 45 20 21 19
35 32 43 50 51 53 52 50 46 47 48 42 35 47 39 44 34 40 29 24 14 16 8 3 21 22 25 29 33 32 21 20 23 15 2 5 6 14 7 8 10 10 14 12 14 13 28 45 45 64 72 54 63 25
81 67 73 63 53 50 47 47 48 45 45 41 44 42 42 37 23 22 33 24 26 12 10 2 6 16 19 23 31 41 39 37 25 2 4 8 8 1 3 4 6 13 21 16 10 27 36 47 64 60 66 65 57 62
73 79 72 61 52 45 43 39 38 37 36 38 31 41 49 39 42 51 17 22 23 17 8 3 4 11 20 26 33 38 37 32 23 9 10 20 33 18 7 24 40 51 47 48 24 50 49 49 55 42 55 57 63 51
67 67 65 56 48 47 44 47 41 38 35 40 56 62 57 50 46 13 10 19 33 19 8 5 8 4 16 24 16 20 23 19 23 14 16 16 10 35 19 30 14 36 44 69 74 62 44 56 55 62 59 65 55 53
57 54 55 49 41 38 40 44 45 43 48 50 49 44 40 37 33 25 29 28 30 13 6 6 6 7 12 7 6 12 14 24 24 15 10 11 6 10 13 38 66 85 74 67 63 44 61 63 61 63 57 55 41 42
42 48 42 42 34 31 30 36 41 41 38 45 45 45 36 15 11 19 25 21 11 8 9 6 6 7 14 8 12 15 16 8 16 10 9 15 8 14 18 8 16 17 21 38 70 87 77 64 66 60 63 54 43 44
38 39 37 37 26 26 28 36 39 41 34 37 28 11 12 17 34 27 9 7 5 4 6 2 3 4 8 11 9 5 14 7 6 11 21 13 17 11 16 8 10 19 26 31 34 45 49 60 62 69 74 73 72 72
31 31 35 36 20 22 24 38 37 42 33 12 8 12 30 23 6 10 10 9 9 8 15 11 9 3 6 3 5 11 4 6 7 10 16 10 16 4 36 28 25 28 29 27 30 48 54 57 52 46 66 71 80 81
25 25 28 29 18 15 18 30 41 30 16 12 28 34 16 8 10 12 4 6 8 4 14 5 14 13 17 9 2 7 7 3 11 4 9 8 9 48 54 51 42 40 39 38 31 44 48 49 47 53 56 70 84 71
28 17 20 23 14 10 13 21 33 16 32 30 11 10 5 11 14 8 5 6 6 9 17 26 9 17 14 11 7 6 10 13 3 7 5 9 36 57 66 68 57 45 42 38 35 39 43 41 38 47 51 60 69 63
24 15 13 18 10 7 10 19 33 41 11 8 8 11 7 6 7 4 2 1 7 9 22 23 10 5 10 7 6 8 8 4 7 8 1 8 50 66 75 68 63 60 48 39 37 37 37 33 32 34 36 49 61 60
19 12 4 13 6 4 9 19 31 17 11 13 13 8 8 5 17 13 12 9 13 17 25 12 12 8 6 8 7 8 8 3 5 8 7 39 61 63 72 71 63 56 50 41 36 36 33 26 23 24 27 37 50 56
15 7 7 8 7 11 14 26 25 16 16 14 23 8 22 3 8 16 21 15 21 37 15 6 5 5 5 5 9 8 9 7 8 7 49 57 57 59 69 63 58 51 45 40 35 31 28 20 16 21 22 30 42 56
11 6 2 7 11 22 23 27 16 21 17 14 12 35 13 9 7 24 26 21 33 15 5 4 7 6 8 6 7 7 6 10 34 52 58 61 61 64 63 57 51 47 41 33 27 23 19 15 16 17 27 33 42 53
25 17 23 32 38 35 35 22 19 18 19 24 10 22 28 24 28 24 26 23 18 13 9 6 8 13 9 9 7 6 19 43 46 51 60 52 54 56 54 52 45 42 36 25 17 12 13 11 14 22 27 33 41 49
26 10 26 29 12 12 14 18 19 15 17 16 29 22 27 34 47 42 33 8 21 20 11 12 11 7 6 6 15 38 42 43 57 67 51 41 47 45 43 40 33 28 23 15 5 4 8 13 20 26 32 39 51 57
21 14 27 28 20 14 15 16 16 20 9 9 8 24 35 40 55 58 59 46 36 15 19 10 5 10 11 34 37 41 44 43 46 56 52 47 47 44 42 39 34 24 16 15 15 14 19 25 28 28 30 39 54 65
49 48 49 46 53 32 20 14 19 15 17 12 8 11 16 18 53 64 57 41 29 16 9 13 24 25 24 25 26 30 30 32 34 34 44 54 49 43 41 34 30 31 36 37 40 37 33 36 34 42 54 60 63 63
59 60 67 59 23 20 26 26 15 11 11 12 11 13 15 12 18 34 32 35 18 16 17 27 30 28 28 29 30 31 30 30 31 31 29 33 44 46 44 41 39 43 43 42 42 43 43 41 40 42 46 50 53 59
58 55 38 34 22 21 12 16 11 16 8 11 8 9 11 15 23 17 15 16 14 30 33 32 30 28 30 33 36 37 38 39 40 42 39 36 36 38 37 38 38 37 39 40 37 36 37 35 35 37 38 39 42 45
56 31 29 24 35 11 11 19 16 14 14 11 8 8 10 18 18 14 5 11 24 31 33 34 35 36 38 41 44 46 46 44 44 46 48 47 47 45 45 44 42 40 38 33 32 32 31 31 29 29 29 29 29 30
20 37 24 19 29 19 17 13 16 14 8 7 7 9 9 17 7 7 4 20 27 30 31 29 28 33 38 38 37 40 43 46 48 49 50 49 45 43 46 45 46 43 39 34 33 31 29 25 23 23 21 20 21 20
19 31 20 20 18 12 5 9 9 8 5 9 4 11 10 6 9 1 6 15 17 21 24 27 30 30 31 35 38 37 35 33 36 36 41 42 41 41 40 40 40 41 42 40 37 34 30 28 25 21 18 15 13 10
15 12 19 27 12 8 14 10 6 9 9 8 6 13 6 9 1 6 6 7 10 15 20 24 28 31 34 35 34 33 32 40 40 37 34 28 26 29 30 29 29 29 31 31 31 30 29 27 23 20 16 13 10 7
16 23 8 24 16 18 9 8 8 6 4 8 6 8 8 10 7 3 6 13 17 20 22 24 27 34 47 48 54 55 51 50 51 52 46 34 21 20 18 18 22 23 24 24 24 23 23 22 21 21 19 18 17 16
14 27 14 16 9 14 14 7 6 11 15 4 2 4 4 5 6 12 16 23 26 29 29 28 47 71 66 52 47 46 48 49 48 45 38 33 27 22 23 29 35 36 37 37 37 36 35 33 31 29 26 25 24 24
16 26 10 10 8 5 9 10 11 11 11 8 8 8 9 10 11 15 16 20 23 17 16 45 70 60 60 59 63 60 49 45 41 38 40 42 40 41 41 41 41 41 44 47 47 45 46 49 48 47 45 41 37 37
14 14 4 8 5 6 12 12 9 10 9 8 9 10 13 14 12 12 16 21 19 21 34 59 65 55 55 54 55 59 61 52 49 46 45 48 50 50 49 48 47 47 48 48 49 49 48 46 44 44 45 47 45 47
13 11 4 4 1 8 9 14 10 7 7 7 7 10 12 11 8 10 27 27 29 36 48 60 58 59 54 53 51 48 49 49 48 49 47 47 48 47 47 46 44 42 41 40 40 40 40 43 47 48 50 51 51 49
3 5 4 3 4 4 7 15 4 9 8 7 7 9 8 8 9 10 30 28 31 47 55 54 54 53 51 49 48 46 46 46 46 45 45 45 46 45 45 45 45 43 41 41 41 41 41 40 42 42 42 43 43 43
Wind_Direction_500mb
44 78 95 77 92 96 106 117 130 149 158 158 165 166 175 155 142 151 117 125 143 86 130 151 159 148 150 162 133 161 103 277 50 128 137 214 147 225 155 197 169 168 168 187 181 235 267 184 150 167 213 253 258 205
53 83 111 96 101 102 102 113 112 143 157 160 164 167 169 161 156 163 131 125 109 96 136 143 140 166 172 172 141 166 168 160 172 102 232 112 174 186 181 205 76 209 191 176 193 216 259 207 190 202 9 222 230 241
71 98 106 107 101 103 105 109 122 122 122 149 150 164 168 174 165 172 174 172 135 98 107 153 168 181 174 171 188 165 207 193 197 204 165 207 218 131 173 235 194 237 188 218 149 242 259 256 235 240 275 305 307 270
89 100 108 106 101 100 101 102 114 124 131 138 141 151 147 172 173 199 178 176 175 106 102 182 197 204 210 214 216 221 215 193 229 257 127 163 177 194 217 214 210 202 162 196 271 287 293 286 255 251 253 263 264 295
45 75 91 98 96 95 98 99 105 131 132 137 146 159 152 173 184 174 190 162 151 154 164 355 168 193 201 214 228 233 237 238 239 237 209 234 187 184 246 33 242 190 214 205 230 191 221 243 259 273 251 266 266 266
38 54 68 82 88 89 94 99 105 107 116 147 128 151 165 168 142 134 102 159 163 170 117 55 295 247 227 228 227 230 231 242 220 191 239 248 234 196 203 240 244 245 249 253 251 258 252 257 255 255 276 278 265 250
33 47 56 63 91 100 104 104 96 101 108 122 120 129 134 141 150 89 114 159 183 156 103 15 335 266 251 236 233 227 221 214 204 212 233 233 219 214 240 257 238 242 265 256 256 253 255 250 249 251 244 252 254 243
32 39 48 52 77 98 110 111 111 107 107 119 133 138 135 140 138 103 92 120 152 135 137 97 267 333 192 183 223 183 192 202 211 223 238 209 193 209 239 243 247 255 257 265 278 265 258 265 264 263 257 255 259 247
31 33 37 38 68 88 116 129 129 126 128 126 126 122 114 104 84 116 123 130 131 109 125 141 158 233 180 222 208 189 202 221 206 218 213 169 200 221 243 159 232 245 251 259 251 265 271 271 270 264 255 252 253 245
28 30 34 33 56 71 105 134 139 138 149 132 122 87 77 87 121 130 115 119 129 60 53 163 5 268 196 203 201 198 195 216 226 226 163 215 228 114 25 355 294 300 287 273 285 278 278 271 268 258 252 253 255 250
16 25 22 29 64 72 96 137 140 156 153 126 82 71 123 120 86 51 60 48 360 16 12 347 7 334 29 115 228 221 251 204 233 220 185 213 226 218 353 327 306 293 290 285 268 272 271 271 277 270 258 264 263 253
9 13 20 36 58 77 101 154 162 157 146 99 110 107 104 65 56 75 21 351 53 230 356 358 325 327 305 309 297 266 232 232 250 291 188 222 42 352 348 334 322 311 299 287 281 281 274 266 261 255 251 251 251 246
355 11 15 19 43 70 107 147 172 148 128 119 78 78 30 357 51 92 209 306 19 16 20 4 337 330 311 256 257 251 226 235 345 212 328 26 348 342 341 340 323 315 306 296 287 284 281 276 263 257 243 244 250 233
343 353 359 0 37 81 109 145 150 147 137 86 61 52 67 13 54 68 359 344 11 27 352 336 269 259 276 254 241 249 242 36 268 209 52 342 341 335 335 337 330 322 319 315 307 299 292 280 264 255 234 232 235 223
1 351 7 346 61 85 122 145 162 158 75 68 34 57 58 50 62 30 13 345 347 333 340 314 259 242 275 263 18 323 316 90 32 325 322 332 327 329 331 331 330 327 325 322 317 307 299 284 268 258 236 222 224 214
353 345 340 8 90 134 125 138 149 79 63 58 44 44 360 61 24 11 356 342 354 336 337 223 265 250 39 13 38 26 312 348 324 326 314 316 319 328 329 330 331 330 329 325 319 317 303 285 256 237 212 203 204 207
351 326 318 95 111 142 137 120 71 56 56 51 46 33 44 57 28 344 334 323 339 348 343 311 31 17 303 49 44 13 345 311 314 311 317 315 327 335 333 334 337 339 335 330 326 317 297 260 216 206 202 187 191 193
6 18 134 121 117 115 92 60 74 67 64 38 65 27 54 47 19 12 354 3 16 4 23 49 16 37 27 10 346 355 314 311 312 315 323 329 337 342 338 339 342 344 339 335 333 319 268 222 182 190 181 177 181 180
9 54 153 158 121 86 68 53 57 83 71 76 59 58 55 45 43 41 39 59 57 66 87 52 51 35 348 328 307 311 317 321 319 327 339 347 345 349 348 351 355 353 351 351 3 95 123 153 160 160 158 167 171 168
51 98 122 142 129 82 78 61 69 91 105 109 70 59 59 48 40 44 43 50 60 58 45 48 22 309 281 310 320 316 323 329 329 331 348 3 2 5 9 9 11 13 29 55 72 97 115 125 127 138 152 161 159 152
82 89 97 113 78 68 79 61 65 85 111 82 45 48 54 29 30 31 30 37 55 40 52 12 352 353 347 342 338 336 341 343 344 334 334 345 8 11 18 26 39 50 60 66 72 77 86 92 108 128 138 140 140 138
70 75 73 74 70 70 64 39 77 86 87 90 47 43 49 23 9 20 26 34 53 21 10 360 3 9 15 17 17 15 12 14 13 11 10 6 11 17 23 25 35 47 53 58 66 73 78 88 102 114 123 125 132 135
57 56 52 37 64 56 42 31 62 29 68 15 28 45 28 13 16 30 57 28 25 13 17 22 27 31 33 36 35 33 31 28 25 24 23 24 29 29 30 34 37 43 50 54 60 71 77 84 93 102 107 114 119 124
56 43 33 40 32 27 26 32 35 39 52 28 31 33 8 359 11 66 51 7 15 21 28 33 38 46 49 46 38 35 34 33 31 31 29 27 29 30 33 35 35 39 43 46 51 59 68 76 84 94 100 106 113 117
51 14 28 6 17 31 28 15 7 31 49 336 55 11 352 356 50 49 324 347 18 29 33 37 37 35 33 36 35 34 33 30 29 29 30 31 33 33 33 33 36 39 40 42 46 45 49 56 68 77 88 99 107 117
62 21 34 4 10 46 349 46 24 2 16 28 16 334 351 66 59 341 269 336 357 10 14 14 11 17 17 7 3 8 10 14 17 18 17 16 20 25 30 33 35 33 32 33 33 35 36 39 42 46 51 60 72 86
43 346 11 16 10 32 69 74 74 65 50 24 319 350 36 62 301 255 277 285 321 333 339 343 348 348 347 347 345 344 343 341 338 335 337 343 350 355 2 13 21 25 25 25 25 21 19 21 23 22 21 23 20 14
49 20 43 351 26 32 104 54 39 24 283 340 309 25 118 177 215 249 253 298 310 317 328 333 345 355 348 335 327 322 319 316 314 316 312 303 310 319 316 331 335 338 339 340 343 346 348 347 345 342 340 337 332 329
25 358 13 24 35 43 46 60 2 10 343 337 142 275 304 286 256 286 303 309 311 316 325 340 342 337 334 332 334 334 330 327 326 326 325 321 312 295 284 291 297 297 295 295 298 301 302 302 301 299 301 305 306 303
12 9 24 24 54 21 20 16 345 334 341 331 306 293 277 270 268 282 297 308 314 312 330 342 342 337 336 334 331 331 339 336 334 326 317 313 309 302 298 296 295 293 292 291 290 287 286 286 285 283 283 282 285 287
357 1 39 49 95 22 353 347 327 322 308 294 285 277 285 302 278 282 318 325 315 302 317 331 336 340 338 336 334 331 331 333 328 322 315 311 309 306 303 300 298 296 294 290 288 285 284 283 282 280 278 277 278 284
5 23 30 30 319 331 338 338 318 309 294 289 283 292 304 311 284 331 340 332 321 323 326 330 334 338 341 338 335 329 322 320 318 317 316 313 311 310 308 307 305 302 299 298 295 292 289 286 283 281 281 280 282 282
321 8 5 316 288 306 322 337 300 317 263 272 277 290 279 280 268 316 338 336 332 331 335 337 337 340 343 338 333 329 326 326 325 322 319 315 312 311 309 307 305 302 298 294 292 291 290 289 289 290 289 287 285 283
Wind_Speed_850mb
27 30 29 45 47 52 55 54 49 56 70 66 69 68 75 59 51 40 40 31 25 16 25 17 23 29 23 25 9 15 12 3 5 5 7 7 6 10 6 8 13 16 16 9 8 8 23 12 34 42 50 15 8 70
25 22 39 46 46 47 50 50 47 50 67 57 89 74 63 59 57 46 30 29 34 21 18 25 23 25 27 34 31 35 15 13 19 6 3 4 5 6 8 7 2 7 14 13 17 15 7 49 16 73 8 23 38 26
27 26 39 46 51 52 50 49 49 49 48 55 47 71 69 69 59 46 29 25 21 19 16 16 18 23 25 28 35 17 11 13 10 11 8 6 6 7 7 9 7 7 13 8 7 11 27 31 70 38 45 20 21 19
35 32 43 50 51 53 52 50 46 47 48 42 35 47 39 44 34 40 29 24 14 16 8 3 21 22 25 29 33 32 21 20 23 15 2 5 6 14 7 8 10 10 14 12 14 13 28 45 45 64 72 54 63 25
81 67 73 63 53 50 47 47 48 45 45 41 44 42 42 37 23 22 33 24 26 12 10 2 6 16 19 23 31 41 39 37 25 2 4 8 8 1 3 4 6 13 21 16 10 27 36 47 64 60 66 65 57 62
73 79 72 61 52 45 43 39 38 37 36 38 31 41 49 39 42 51 17 22 23 17 8 3 4 11 20 26 33 38 37 32 23 9 10 20 33 18 7 24 40 51 47 48 24 50 49 49 55 42 55 57 63 51
67 67 65 56 48 47 44 47 41 38 35 40 56 62 57 50 46 13 10 19 33 19 8 5 8 4 16 24 16 20 23 19 23 14 16 16 10 35 19 30 14 36 44 69 74 62 44 56 55 62 59 65 55 53
57 54 55 49 41 38 40 44 45 43 48 50 49 44 40 37 33 25 29 28 30 13 6 6 6 7 12 7 6 12 14 24 24 15 10 11 6 10 13 38 66 85 74 67 63 44 61 63 61 63 57 55 41 42
42 48 42 42 34 31 30 36 41 41 38 45 45 45 36 15 11 19 25 21 11 8 9 6 6 7 14 8 12 15 16 8 16 10 9 15 8 14 18 8 16 17 21 38 70 87 77 64 66 60 63 54 43 44
38 39 37 37 26 26 28 36 39 41 34 37 28 11 12 17 34 27 9 7 5 4 6 2 3 4 8 11 9 5 14 7 6 11 21 13 17 11 16 8 10 19 26 31 34 45 49 60 62 69 74 73 72 72
31 31 35 36 20 22 24 38 37 42 33 12 8 12 30 23 6 10 10 9 9 8 15 11 9 3 6 3 5 11 4 6 7 10 16 10 16 4 36 28 25 28 29 27 30 48 54 57 52 46 66 71 80 81
25 25 28 29 18 15 18 30 41 30 16 12 28 34 16 8 10 12 4 6 8 4 14 5 14 13 17 9 2 7 7 3 11 4 9 8 9 48 54 51 42 40 39 38 31 44 48 49 47 53 56 70 84 71
28 17 20 23 14 10 13 21 33 16 32 30 11 10 5 11 14 8 5 6 6 9 17 26 9 17 14 11 7 6 10 13 3 7 5 9 36 57 66 68 57 45 42 38 35 39 43 41 38 47 51 60 69 63
24 15 13 18 10 7 10 19 33 41 11 8 8 11 7 6 7 4 2 1 7 9 22 23 10 5 10 7 6 8 8 4 7 8 1 8 50 66 75 68 63 60 48 39 37 37 37 33 32 34 36 49 61 60
19 12 4 13 6 4 9 19 31 17 11 13 13 8 8 5 17 13 12 9 13 17 25 12 12 8 6 8 7 8 8 3 5 8 7 39 61 63 72 71 63 56 50 41 36 36 33 26 23 24 27 37 50 56
15 7 7 8 7 11 14 26 25 16 16 14 23 8 22 3 8 16 21 15 21 37 15 6 5 5 5 5 9 8 9 7 8 7 49 57 57 59 69 63 58 51 45 40 35 31 28 20 16 21 22 30 42 56
11 6 2 7 11 22 23 27 16 21 17 14 12 35 13 9 7 24 26 21 33 15 5 4 7 6 8 6 7 7 6 10 34 52 58 61 61 64 63 57 51 47 41 33 27 23 19 15 16 17 27 33 42 53
25 17 23 32 38 35 35 22 19 18 19 24 10 22 28 24 28 24 26 23 18 13 9 6 8 13 9 9 7 6 19 43 46 51 60 52 54 56 54 52 45 42 36 25 17 12 13 11 14 22 27 33 41 49
26 10 26 29 12 12 14 18 19 15 17 16 29 22 27 34 47 42 33 8 21 20 11 12 11 7 6 6 15 38 42 43 57 67 51 41 47 45 43 40 33 28 23 15 5 4 8 13 20 26 32 39 51 57
21 14 27 28 20 14 15 16 16 20 9 9 8 24 35 40 55 58 59 46 36 15 19 10 5 10 11 34 37 41 44 43 46 56 52 47 47 44 42 39 34 24 16 15 15 14 19 25 28 28 30 39 54 65
49 48 49 46 53 32 20 14 19 15 17 12 8 11 16 18 53 64 57 41 29 16 9 13 24 25 24 25 26 30 30 32 34 34 44 54 49 43 41 34 30 31 36 37 40 37 33 36 34 42 54 60 63 63
59 60 67 59 23 20 26 26 15 11 11 12 11 13 15 12 18 34 32 35 18 16 17 27 30 28 28 29 30 31 30 30 31 31 29 33 44 46 44 41 39 43 43 42 42 43 43 41 40 42 46 50 53 59
58 55 38 34 22 21 12 16 11 16 8 11 8 9 11 15 23 17 15 16 14 30 33 32 30 28 30 33 36 37 38 39 40 42 39 36 36 38 37 38 38 37 39 40 37 36 37 35 35 37 38 39 42 45
56 31 29 24 35 11 11 19 16 14 14 11 8 8 10 18 18 14 5 11 24 31 33 34 35 36 38 41 44 46 46 44 44 46 48 47 47 45 45 44 42 40 38 33 32 32 31 31 29 29 29 29 29 30
20 37 24 19 29 19 17 13 16 14 8 7 7 9 9 17 7 7 4 20 27 30 31 29 28 33 38 38 37 40 43 46 48 49 50 49 45 43 46 45 46 43 39 34 33 31 29 25 23 23 21 20 21 20
19 31 20 20 18 12 5 9 9 8 5 9 4 11 10 6 9 1 6 15 17 21 24 27 30 30 31 35 38 37 35 33 36 36 41 42 41 41 40 40 40 41 42 40 37 34 30 28 25 21 18 15 13 10
15 12 19 27 12 8 14 10 6 9 9 8 6 13 6 9 1 6 6 7 10 15 20 24 28 31 34 35 34 33 32 40 40 37 34 28 26 29 30 29 29 29 31 31 31 30 29 27 23 20 16 13 10 7
16 23 8 24 16 18 9 8 8 6 4 8 6 8 8 10 7 3 6 13 17 20 22 24 27 34 47 48 54 55 51 50 51 52 46 34 21 20 18 18 22 23 24 24 24 23 23 22 21 21 19 18 17 16
14 27 14 16 9 14 14 7 6 11 15 4 2 4 4 5 6 12 16 23 26 29 29 28 47 71 66 52 47 46 48 49 48 45 38 33 27 22 23 29 35 36 37 37 37 36 35 33 31 29 26 25 24 24
16 26 10 10 8 5 9 10 11 11 11 8 8 8 9 10 11 15 16 20 23 17 16 45 70 60 60 59 63 60 49 45 41 38 40 42 40 41 41 41 41 41 44 47 47 45 46 49 48 47 45 41 37 37
14 14 4 8 5 6 12 12 9 10 9 8 9 10 13 14 12 12 16 21 19 21 34 59 65 55 55 54 55 59 61 52 49 46 45 48 50 50 49 48 47 47 48 48 49 49 48 46 44 44 45 47 45 47
13 11 4 4 1 8 9 14 10 7 7 7 7 10 12 11 8 10 27 27 29 36 48 60 58 59 54 53 51 48 49 49 48 49 47 47 48 47 47 46 44 42 41 40 40 40 40 43 47 48 50 51 51 49
3 5 4 3 4 4 7 15 4 9 8 7 7 9 8 8 9 10 30 28 31 47 55 54 54 53 51 49 48 46 46 46 46 45 45 45 46 45 45 45 45 43 41 41 41 41 41 40 42 42 42 43 43 43
Wind_Direction_850mb
44 78 95 77 92 96 106 117 130 149 158 158 165 166 175 155 142 151 117 125 143 86 130 151 159 148 150 162 133 161 103 277 50 128 137 214 147 225 155 197 169 168 168 187 181 235 267 184 150 167 213 253 258 205
53 83 111 96 101 102 102 113 112 143 157 160 164 167 169 161 156 163 131 125 109 96 136 143 140 166 172 172 141 166 168 160 172 102 232 112 174 186 181 205 76 209 191 176 193 216 259 207 190 202 9 222 230 241
71 98 106 107 101 103 105 109 122 122 122 149 150 164 168 174 165 172 174 172 135 98 107 153 168 181 174 171 188 165 207 193 197 204 165 207 218 131 173 235 194 237 188 218 149 242 259 256 235 240 275 305 307 270
89 100 108 106 101 100 101 102 114 124 131 138 141 151 147 172 173 199 178 176 175 106 102 182 197 204 210 214 216 221 215 193 229 257 127 163 177 194 217 214 210 202 162 196 271 287 293 286 255 251 253 263 264 295
45 75 91 98 96 95 98 99 105 131 132 137 146 159 152 173 184 174 190 162 151 154 164 355 168 193 201 214 228 233 237 238 239 237 209 234 187 184 246 33 242 190 214 205 230 191 221 243 259 273 251 266 266 266
38 54 68 82 88 89 94 99 105 107 116 147 128 151 165 168 142 134 102 159 163 170 117 55 295 247 227 228 227 230 231 242 220 191 239 248 234 196 203 240 244 245 249 253 251 258 252 257 255 255 276 278 265 250
33 47 56 63 91 100 104 104 96 101 108 122 120 129 134 141 150 89 114 159 183 156 103 15 335 266 251 236 233 227 221 214 204 212 233 233 219 214 240 257 238 242 265 256 256 253 255 250 249 251 244 252 254 243
32 39 48 52 77 98 110 111 111 107 107 119 133 138 135 140 138 103 92 120 152 135 137 97 267 333 192 183 223 183 192 202 211 223 238 209 193 209 239 243 247 255 257 265 278 265 258 265 264 263 257 255 259 247
31 33 37 38 68 88 116 129 129 126 128 126 126 122 114 104 84 116 123 130 131 109 125 141 158 233 180 222 208 189 202 221 206 218 213 169 200 221 243 159 232 245 251 259 251 265 271 271 270 264 255 252 253 245
28 30 34 33 56 71 105 134 139 138 149 132 122 87 77 87 121 130 115 119 129 60 53 163 5 268 196 203 201 198 195 216 226 226 163 215 228 114 25 355 294 300 287 273 285 278 278 271 268 258 252 253 255 250
16 25 22 29 64 72 96 137 140 156 153 126 82 71 123 120 86 51 60 48 360 16 12 347 7 334 29 115 228 221 251 204 233 220 185 213 226 218 353 327 306 293 290 285 268 272 271 271 277 270 258 264 263 253
9 13 20 36 58 77 101 154 162 157 146 99 110 107 104 65 56 75 21 351 53 230 356 358 325 327 305 309 297 266 232 232 250 291 188 222 42 352 348 334 322 311 299 287 281 281 274 266 261 255 251 251 251 246
355 11 15 19 43 70 107 147 172 148 128 119 78 78 30 357 51 92 209 306 19 16 20 4 337 330 311 256 257 251 226 235 345 212 328 26 348 342 341 340 323 315 306 296 287 284 281 276 263 257 243 244 250 233
343 353 359 0 37 81 109 145 150 147 137 86 61 52 67 13 54 68 359 344 11 27 352 336 269 259 276 254 241 249 242 36 268 209 52 342 341 335 335 337 330 322 319 315 307 299 292 280 264 255 234 232 235 223
1 351 7 346 61 85 122 145 162 158 75 68 34 57 58 50 62 30 13 345 347 333 340 314 259 242 275 263 18 323 316 90 32 325 322 332 327 329 331 331 330 327 325 322 317 307 299 284 268 258 236 222 224 214
353 345 340 8 90 134 125 138 149 79 63 58 44 44 360 61 24 11 356 342 354 336 337 223 265 250 39 13 38 26 312 348 324 326 314 316 319 328 329 330 331 330 329 325 319 317 303 285 256 237 212 203 204 207
351 326 318 95 111 142 137 120 71 56 56 51 46 33 44 57 28 344 334 323 339 348 343 311 31 17 303 49 44 13 345 311 314 311 317 315 327 335 333 334 337 339 335 330 326 317 297 260 216 206 202 187 191 193
6 18 134 121 117 115 92 60 74 67 64 38 65 27 54 47 19 12 354 3 16 4 23 49 16 37 27 10 346 355 314 311 312 315 323 329 337 342 338 339 342 344 339 335 333 319 268 222 182 190 181 177 181 180
9 54 153 158 121 86 68 53 57 83 71 76 59 58 55 45 43 41 39 59 57 66 87 52 51 35 348 328 307 311 317 321 319 327 339 347 345 349 348 351 355 353 351 351 3 95 123 153 160 160 158 167 171 168
51 98 122 142 129 82 78 61 69 91 105 109 70 59 59 48 40 44 43 50 60 58 45 48 22 309 281 310 320 316 323 329 329 331 348 3 2 5 9 9 11 13 29 55 72 97 115 125 127 138 152 161 159 152
82 89 97 113 78 68 79 61 65 85 111 82 45 48 54 29 30 31 30 37 55 40 52 12 352 353 347 342 338 336 341 343 344 334 334 345 8 11 18 26 39 50 60 66 72 77 86 92 108 128 138 140 140 138
70 75 73 74 70 70 64 39 77 86 87 90 47 43 49 23 9 20 26 34 53 21 10 360 3 9 15 17 17 15 12 14 13 11 10 6 11 17 23 25 35 47 53 58 66 73 78 88 102 114 123 125 132 135
57 56 52 37 64 56 42 31 62 29 68 15 28 45 28 13 16 30 57 28 25 13 17 22 27 31 33 36 35 33 31 28 25 24 23 24 29 29 30 34 37 43 50 54 60 71 77 84 93 102 107 114 119 124
56 43 33 40 32 27 26 32 35 39 52 28 31 33 8 359 11 66 51 7 15 21 28 33 38 46 49 46 38 35 34 33 31 31 29 27 29 30 33 35 35 39 43 46 51 59 68 76 84 94 100 106 113 117
51 14 28 6 17 31 28 15 7 31 49 336 55 11 352 356 50 49 324 347 18 29 33 37 37 35 33 36 35 34 33 30 29 29 30 31 33 33 33 33 36 39 40 42 46 45 49 56 68 77 88 99 107 117
62 21 34 4 10 46 349 46 24 2 16 28 16 334 351 66 59 341 269 336 357 10 14 14 11 17 17 7 3 8 10 14 17 18 17 16 20 25 30 33 35 33 32 33 33 35 36 39 42 46 51 60 72 86
43 346 11 16 10 32 69 74 74 65 50 24 319 350 36 62 301 255 277 285 321 333 339 343 348 348 347 347 345 344 343 341 338 335 337 343 350 355 2 13 21 25 25 25 25 21 19 21 23 22 21 23 20 14
49 20 43 351 26 32 104 54 39 24 283 340 309 25 118 177 215 249 253 298 310 317 328 333 345 355 348 335 327 322 319 316 314 316 312 303 310 319 316 331 335 338 339 340 343 346 348 347 345 342 340 337 332 329
25 358 13 24 35 43 46 60 2 10 343 337 142 275 304 286 256 286 303 309 311 316 325 340 342 337 334 332 334 334 330 327 326 326 325 321 312 295 284 291 297 297 295 295 298 301 302 302 301 299 301 305 306 303
12 9 24 24 54 21 20 16 345 334 341 331 306 293 277 270 268 282 297 308 314 312 330 342 342 337 336 334 331 331 339 336 334 326 317 313 309 302 298 296 295 293 292 291 290 287 286 286 285 283 283 282 285 287
357 1 39 49 95 22 353 347 327 322 308 294 285 277 285 302 278 282 318 325 315 302 317 331 336 340 338 336 334 331 331 333 328 322 315 311 309 306 303 300 298 296 294 290 288 285 284 283 282 280 278 277 278 284
5 23 30 30 319 331 338 338 318 309 294 289 283 292 304 311 284 331 340 332 321 323 326 330 334 338 341 338 335 329 322 320 318 317 316 313 311 310 308 307 305 302 299 298 295 292 289 286 283 281 281 280 282 282
321 8 5 316 288 306 322 337 300 317 263 272 277 290 279 280 268 316 338 336 332 331 335 337 337 340 343 338 333 329 326 326 325 322 319 315 312 311 309 307 305 302 298 294 292 291 290 289 289 290 289 287 285 283